622  
ASUS44 KMAF 242110  
RWRMAF  
MIDLAND AREA WEATHER ROUNDUP  
NATIONAL WEATHER SERVICE MIDLAND TX  
300 PM CST WED FEB 24 2021  
   
..IN SOUTHWEST TEXAS AND SOUTHEAST NEW MEXICO
 
 
 
CITY SKY/WX TMP DP RH WIND PRES REMARKS
 
ALPINE MOSUNNY 67 18 15 NE10 30.15F  
ANDREWS FAIR 63 25 23 SE8 30.09F  
ARTESIA SUNNY 57 21 24 CALM 30.10F  
BIG SPRING SUNNY 64 29 27 NE8G16 30.08S  
CARLSBAD SUNNY 59 22 24 S6 30.07F  
DRYDEN N/A 78 31 17 MISG 30.02F  
FORT STOCKTON SUNNY 66 25 21 N12 30.08F  
GUAD PASS SUNNY 55 16 21 NE12 30.12F  
HOBBS SUNNY 59 21 23 SE5 30.10F  
LAMESA NOT AVBL  
MARFA SUNNY 75 8 7 SW10G20 30.09F  
MIDLAND AIRPK SUNNY 64 28 24 NE5 30.08F  
MIDLAND INTL SUNNY 64 27 24 VRB3 30.08F  
ODESSA SUNNY 65 26 23 E3 30.09F  
PECOS SUNNY 64 25 22 CALM 30.09F  
PRESIDIO FAIR 79 19 10 CALM 30.02F  
SEMINOLE SUNNY 60 27 27 E10 30.14F  
SNYDER SUNNY 61 30 31 NE13 30.10S  
WINK SUNNY 66 25 21 S5 30.07F  

   
..OTHER STATIONS IN TEXAS
 
 
 
CITY SKY/WX TMP DP RH WIND PRES REMARKS
 
ABILENE SUNNY 65 34 31 N16 30.07F  
AMARILLO SUNNY 52 13 21 NE9 30.13F  
AUSTIN MOSUNNY 82 60 47 CALM 29.97S  
BROWNSVILLE PTSUNNY 81 66 60 SE26G33 29.94F  
CORPUS CHRISTI MOSUNNY 82 66 58 S21 29.93F  
DALLAS FTW MOSUNNY 71 38 29 N12G22 30.01R  
DEL RIO NOT AVBL  
EL PASO MOSUNNY 74 4 6 SW9 30.01F  
HOUSTON INT PTSUNNY 79 64 60 S8 29.99S  
LUBBOCK MOSUNNY 59 22 24 E13 30.10F  
SAN ANGELO SUNNY 70 33 25 SE3 30.05F  
SAN ANTONIO MOSUNNY 74 61 63 VRB5 29.98F  
WACO SUNNY 76 38 25 W12 30.00R  
WICHITA FALLS MOSUNNY 52 23 32 N16G23 30.18S  

   
..OTHER LOCATIONS IN NEW MEXICO
 
 
 
CITY SKY/WX TMP DP RH WIND PRES REMARKS
 
ALAMOGORDO MOSUNNY 72 3 7 S16G22 30.01  
ALBUQUERQUE MOSUNNY 60 8 12 S12G20 29.99F  
CANNON AFB NOT AVBL  
CLOVIS SUNNY 54 15 21 SE13 30.12F  
HOLLOMAN AFB SUNNY 72 1 6 S20G25 30.02F  
ROSWELL SUNNY 59 21 23 S10 30.07F  
RUIDOSO SUNNY 54 18 24 SE14 30.09  
SANTA FE SUNNY 52 17 25 SE13G23 30.03F  
TRUTH OR CONSE SUNNY 73 -1 5 SW14G29 29.96F  
TUCUMCARI SUNNY 51 15 23 VRB5 30.10F  

 
 
 
CLICK HERE TO GO TO PREVIOUS BULLETINS.

The Nexlab TX Page
The Nexlab NM Page Main Text Page